Date String (YYYY-MM-DD hh:mm:ss) UTC,Instrument flags,Ambient pressure (hPa),Sample flow (lpm),Bypass flow (lpm),Sample temperature (°C),Ambient temperature (°C),ASC tube jacket temperature (°C),LED temperature (°C),Box temperature (°C),Sample RH (%),Span deviation,Mass concentration (μg/m³),Mass concentration (μg/m³),Mass concentration (μg/m³)
DateTimeUTC,F1_M11,P_M11,Q1_M11,Q2_M11,T1_M11,T2_M11,T3_M11,T4_M11,T5_M11,U1_M11,ZSPAN_M11,X0_M11,X2_M11,X1_M11
2022-05-09 13:00:00,,0811.0,5.00,0.00,26.1,25.3,00.0,35.2,27.9,23.2,0000.0,0012.63,0005.70,0004.12
2022-05-09 13:01:00,,0811.0,5.00,0.00,26.1,25.3,00.0,35.2,27.9,23.3,0000.0,0012.06,0005.78,0004.13
2022-05-09 13:02:00,,0811.0,5.00,0.00,26.1,25.3,00.0,35.2,27.9,23.3,0000.0,0011.61,0005.83,0004.15
2022-05-09 13:03:00,,0811.0,5.00,0.00,26.1,25.3,00.0,35.1,27.9,23.2,0000.0,0011.43,0005.80,0004.15
2022-05-09 13:04:00,,0811.1,5.01,0.00,26.1,25.3,00.0,35.1,27.9,23.2,0000.0,0011.50,0005.85,0004.19
2022-05-09 13:05:00,,0811.1,5.00,0.00,26.1,25.3,00.0,35.1,27.9,23.1,0000.0,0011.27,0005.78,0004.19
2022-05-09 13:06:00,,0811.1,5.00,0.00,26.0,25.3,00.0,35.1,27.9,23.0,0000.0,0010.90,0005.75,0004.20
2022-05-09 13:07:00,,0811.1,5.01,0.00,26.0,25.3,00.0,35.1,27.9,23.0,0000.0,0010.78,0005.74,0004.22
2022-05-09 13:08:00,,0811.1,5.00,0.00,26.0,25.2,00.0,35.1,27.9,23.1,0000.0,0010.90,0005.76,0004.22
2022-05-09 13:09:00,,0811.2,5.00,0.00,26.0,25.2,00.0,35.1,27.9,23.1,0000.0,0010.98,0005.80,0004.23
2022-05-09 13:10:00,,0811.2,5.01,0.00,26.0,25.2,00.0,35.1,27.9,23.1,0000.0,0010.91,0005.80,0004.24
2022-05-09 13:11:00,,0811.2,5.01,0.00,26.0,25.2,00.0,35.1,27.8,23.2,0000.0,0010.84,0005.79,0004.24
2022-05-09 13:12:00,,0811.2,4.99,0.00,26.0,25.2,00.0,35.1,27.8,23.3,0000.0,0010.81,0005.78,0004.25
2022-05-09 13:13:00,,0811.2,5.00,0.00,26.0,25.2,00.0,35.1,27.8,23.3,0000.0,0010.82,0005.81,0004.27
2022-05-09 13:14:00,,0811.2,5.00,0.00,26.0,25.2,00.0,35.0,27.8,23.4,0000.0,0010.81,0005.82,0004.29
2022-05-09 13:15:00,,0811.2,5.00,0.00,26.0,25.1,00.0,35.0,27.8,23.9,0000.0,0010.87,0005.75,0004.30
2022-05-09 13:16:00,,0811.2,5.01,0.00,25.9,25.1,00.0,35.0,27.8,24.6,0000.0,0011.08,0005.83,0004.31
2022-05-09 13:17:00,,0811.2,5.02,0.00,25.9,25.1,00.0,35.0,27.8,24.1,0000.0,0011.07,0005.86,0004.33
2022-05-09 13:18:00,,0811.2,5.00,0.00,25.9,25.1,00.0,35.0,27.8,23.9,0000.0,0011.22,0005.88,0004.34
2022-05-09 13:19:00,,0811.2,4.99,0.00,25.9,25.1,00.0,35.0,27.8,23.8,0000.0,0011.21,0005.91,0004.36
2022-05-09 13:20:00,,0811.2,5.00,0.00,25.9,25.1,00.0,35.0,27.8,23.6,0000.0,0012.13,0006.00,0004.37
2022-05-09 13:21:00,,0811.2,5.01,0.00,25.9,25.1,00.0,35.0,27.8,23.8,0000.0,0012.35,0006.01,0004.38
2022-05-09 13:22:00,,0811.2,5.01,0.00,25.9,25.1,00.0,35.0,27.7,23.9,0000.0,0012.41,0006.02,0004.39
2022-05-09 13:23:00,,0811.2,5.00,0.00,25.9,25.1,00.0,35.0,27.8,24.0,0000.0,0012.42,0006.02,0004.39
2022-05-09 13:24:00,,0811.2,5.00,0.00,25.9,25.1,00.0,35.0,27.8,23.8,0000.0,0012.24,0005.97,0004.39
2022-05-09 13:25:00,,0811.2,5.01,0.00,25.9,25.1,00.0,35.0,27.8,23.7,0000.0,0012.34,0006.01,0004.38
2022-05-09 13:26:00,,0811.3,5.00,0.00,25.9,25.1,00.0,35.0,27.8,23.8,0000.0,0012.26,0006.05,0004.37
2022-05-09 13:27:00,,0811.3,4.99,0.00,25.9,25.1,00.0,34.9,27.8,23.9,0000.0,0012.12,0006.01,0004.37
2022-05-09 13:28:00,,0811.4,5.01,0.00,26.0,25.2,00.0,34.9,27.8,24.0,0000.0,0012.08,0006.01,0004.36
2022-05-09 13:29:00,,0811.4,5.01,0.00,26.0,25.2,00.0,34.9,27.8,23.7,0000.0,0011.93,0005.97,0004.35
2022-05-09 13:30:00,,0811.4,5.02,0.00,26.0,25.2,00.0,34.9,27.8,23.7,0000.0,0011.79,0005.91,0004.35
2022-05-09 13:31:00,,0811.3,4.99,0.00,26.0,25.2,00.0,34.9,27.8,23.9,0000.0,0010.98,0005.82,0004.35
2022-05-09 13:32:00,,0811.4,5.00,0.00,26.0,25.2,00.0,34.9,27.8,23.9,0000.0,0010.69,0005.77,0004.37
2022-05-09 13:33:00,,0811.4,4.99,0.00,25.9,25.1,00.0,34.9,27.8,23.9,0000.0,0010.62,0005.74,0004.37
2022-05-09 13:34:00,,0811.4,5.00,0.00,25.9,25.2,00.0,34.9,27.8,23.6,0000.0,0010.53,0005.73,0004.39
2022-05-09 13:35:00,,0811.5,5.00,0.00,25.9,25.2,00.0,34.9,27.8,23.6,0000.0,0010.48,0005.72,0004.40
2022-05-09 13:36:00,,0811.5,4.99,0.00,26.0,25.2,00.0,34.9,27.8,23.5,0000.0,0010.60,0005.78,0004.43
2022-05-09 13:37:00,,0811.5,5.01,0.00,26.0,25.2,00.0,34.9,27.8,23.5,0000.0,0010.58,0005.81,0004.46
2022-05-09 13:38:00,,0811.6,5.00,0.00,26.0,25.2,00.0,34.9,27.8,23.7,0000.0,0010.62,0005.85,0004.49
2022-05-09 13:39:00,,0811.7,5.00,0.00,25.9,25.2,00.0,34.9,27.8,23.7,0000.0,0010.70,0005.87,0004.52
2022-05-09 13:40:00,,0811.7,4.99,0.00,25.9,25.2,00.0,34.9,27.8,23.5,0000.0,0010.62,0005.89,0004.56
2022-05-09 13:41:00,,0811.7,5.00,0.00,25.9,25.2,00.0,34.9,27.8,23.7,0000.0,0010.79,0005.92,0004.60
2022-05-09 13:42:00,,0811.7,5.01,0.00,25.9,25.1,00.0,34.9,27.8,23.7,0000.0,0010.91,0005.98,0004.63
2022-05-09 13:43:00,,0811.7,4.99,0.00,25.9,25.1,00.0,34.9,27.7,23.8,0000.0,0010.92,0006.03,0004.66
2022-05-09 13:44:00,,0811.7,5.01,0.00,25.9,25.1,00.0,34.9,27.8,23.8,0000.0,0011.18,0006.11,0004.70
2022-05-09 13:45:00,,0811.7,5.00,0.00,25.9,25.2,00.0,34.9,27.8,23.7,0000.0,0011.80,0006.15,0004.74
2022-05-09 13:46:00,,0811.7,5.01,0.00,25.9,25.2,00.0,34.9,27.8,23.8,0000.0,0012.12,0006.22,0004.77
2022-05-09 13:47:00,,0811.7,4.99,0.00,25.9,25.2,00.0,34.9,27.8,24.0,0000.0,0012.04,0006.19,0004.78
2022-05-09 13:48:00,,0811.7,5.00,0.00,25.9,25.2,00.0,34.9,27.8,23.8,0000.0,0011.99,0006.18,0004.79
2022-05-09 13:49:00,,0811.7,5.01,0.00,25.9,25.2,00.0,34.9,27.8,23.7,0000.0,0012.02,0006.19,0004.80
2022-05-09 13:50:00,,0811.7,5.00,0.00,25.9,25.2,00.0,34.9,27.8,23.8,0000.0,0012.42,0006.23,0004.82
2022-05-09 13:51:00,,0811.7,4.99,0.00,25.9,25.2,00.0,34.9,27.8,23.8,0000.0,0012.56,0006.27,0004.83
2022-05-09 13:52:00,,0811.7,5.01,0.00,25.9,25.1,00.0,34.9,27.8,23.7,0000.0,0012.57,0006.34,0004.85
2022-05-09 13:53:00,,0811.7,4.99,0.00,25.9,25.1,00.0,34.9,27.8,23.7,0000.0,0012.81,0006.45,0004.87
2022-05-09 13:54:00,,0811.6,5.00,0.00,25.9,25.2,00.0,34.9,27.8,24.0,0000.0,0012.99,0006.51,0004.88
2022-05-09 13:55:00,,0811.7,5.00,0.00,25.9,25.2,00.0,34.9,27.9,24.3,0000.0,0012.82,0006.52,0004.88
2022-05-09 13:56:00,,0811.7,5.01,0.00,26.0,25.3,00.0,34.9,27.9,24.3,0000.0,0012.30,0006.53,0004.89
2022-05-09 13:57:00,,0811.7,4.99,0.00,26.0,25.3,00.0,34.9,27.9,24.2,0000.0,0012.07,0006.50,0004.88
2022-05-09 13:58:00,,0811.7,5.00,0.00,26.0,25.4,00.0,34.9,27.9,24.1,0000.0,0012.16,0006.54,0004.90
2022-05-09 13:59:00,,0811.7,5.01,0.00,26.0,25.4,00.0,34.9,28.0,23.9,0000.0,0012.23,0006.57,0004.91
